When you browse on this site, cookies collect data to enhance your experience and personalize the content and advertising you see.
Visit our Privacy Policy to learn more. By continuing to use the site, you agree to this use of cookies and data.
  • In Hungary
  • List of Countries
  • For 7 days
  • Water Temperature
  • Satellite Maps
  • Weather Map
  • News
  • Weather Widgets
  • user-avatar
    Login

    Hourly Weather Huamantla

    Today, 20 February, Wednesday

    Time Temperature Precipitation Wind Pressure Humidity
    00:00 +12°C° 0 mm 1 mps 559 mmHg 45%
    01:00 +11°C° 0 mm 1 mps 558 mmHg 46%
    02:00 +11°C° 0 mm 1 mps 557 mmHg 48%
    03:00 +10°C° 0 mm 1 mps 557 mmHg 49%
    04:00 +10°C° 0 mm 1 mps 557 mmHg 50%
    05:00 +9°C° 0 mm 1 mps 557 mmHg 50%
    06:00 +11°C° 0 mm 1 mps 558 mmHg 46%
    07:00 +12°C° 0 mm 1 mps 559 mmHg 42%
    08:00 +14°C° 0 mm 1 mps 560 mmHg 37%
    09:00 +16°C° 0 mm 2 mps 561 mmHg 33%
    10:00 +18°C° 0 mm 2 mps 562 mmHg 28%
    11:00 +20°C° 0 mm 3 mps 563 mmHg 23%
    12:00 +21°C° 0 mm 4 mps 563 mmHg 22%
    13:00 +22°C° 0 mm 5 mps 563 mmHg 21%
    14:00 +22°C° 0 mm 6 mps 563 mmHg 21%
    15:00 +21°C° 0 mm 6 mps 562 mmHg 24%
    16:00 +20°C° 0 mm 6 mps 561 mmHg 27%
    17:00 +19°C° 0 mm 6 mps 561 mmHg 30%
    18:00 +16°C° 0 mm 5 mps 561 mmHg 35%
    19:00 +15°C° 0 mm 4 mps 560 mmHg 40%
    20:00 +13°C° 0 mm 3 mps 560 mmHg 45%
    21:00 +13°C° 0 mm 3 mps 560 mmHg 47%
    22:00 +13°C° 0 mm 2 mps 560 mmHg 49%
    23:00 +13°C° 0 mm 2 mps 560 mmHg 51%

    Tomorrow, 21 February, Thursday

    Time Temperature Precipitation Wind Pressure Humidity
    00:00 +12°C° 0 mm 2 mps 559 mmHg 57%
    01:00 +10°C° 0 mm 2 mps 558 mmHg 62%
    02:00 +10°C° 0 mm 2 mps 558 mmHg 67%
    03:00 +9°C° 0 mm 2 mps 558 mmHg 69%
    04:00 +8°C° 0 mm 2 mps 557 mmHg 71%
    05:00 +9°C° 0 mm 1 mps 557 mmHg 72%
    06:00 +9°C° 0 mm 2 mps 558 mmHg 66%
    07:00 +12°C° 0 mm 2 mps 559 mmHg 59%
    08:00 +13°C° 0 mm 2 mps 560 mmHg 52%
    09:00 +16°C° 0 mm 3 mps 561 mmHg 44%
    10:00 +18°C° 0 mm 3 mps 562 mmHg 36%
    11:00 +20°C° 0 mm 4 mps 563 mmHg 28%
    12:00 +21°C° 0 mm 4 mps 563 mmHg 25%
    13:00 +22°C° 0 mm 5 mps 563 mmHg 22%
    14:00 +22°C° 0 mm 5 mps 562 mmHg 19%
    15:00 +21°C° 0 mm 5 mps 562 mmHg 21%
    16:00 +20°C° 0 mm 5 mps 561 mmHg 23%
    17:00 +19°C° 0 mm 5 mps 561 mmHg 25%
    18:00 +17°C° 0 mm 4 mps 561 mmHg 30%
    19:00 +14°C° 0 mm 3 mps 560 mmHg 35%
    20:00 +14°C° 0 mm 2 mps 560 mmHg 40%
    21:00 +13°C° 0 mm 2 mps 560 mmHg 43%
    22:00 +13°C° 0 mm 1 mps 560 mmHg 47%
    23:00 +12°C° 0 mm 1 mps 559 mmHg 50%

    Day after tomorrow, 22 February, Friday

    Time Temperature Precipitation Wind Pressure Humidity
    00:00 +12°C° 0 mm 1 mps 559 mmHg 53%
    01:00 +11°C° 0 mm 1 mps 558 mmHg 55%
    02:00 +11°C° 0 mm 1 mps 558 mmHg 58%
    03:00 +10°C° 0 mm 1 mps 558 mmHg 58%
    04:00 +10°C° 0 mm 1 mps 558 mmHg 58%
    05:00 +9°C° 0 mm 0 mps 558 mmHg 58%
    06:00 +11°C° 0 mm 1 mps 559 mmHg 51%
    07:00 +13°C° 0 mm 1 mps 561 mmHg 44%
    08:00 +15°C° 0 mm 1 mps 562 mmHg 36%
    09:00 +18°C° 0 mm 1 mps 563 mmHg 30%
    10:00 +20°C° 0 mm 1 mps 564 mmHg 23%
    11:00 +23°C° 0 mm 2 mps 565 mmHg 17%
    12:00 +23°C° 0 mm 2 mps 565 mmHg 16%
    13:00 +24°C° 0 mm 3 mps 564 mmHg 15%
    14:00 +24°C° 0 mm 3 mps 564 mmHg 14%
    15:00 +22°C° 0 mm 4 mps 563 mmHg 18%
    16:00 +21°C° 0 mm 4 mps 563 mmHg 22%
    17:00 +20°C° 0 mm 4 mps 562 mmHg 25%
    18:00 +18°C° 0 mm 3 mps 562 mmHg 30%
    19:00 +17°C° 0 mm 2 mps 562 mmHg 35%
    20:00 +15°C° 0 mm 1 mps 562 mmHg 40%
    21:00 +15°C° 0 mm 1 mps 562 mmHg 42%
    22:00 +14°C° 0 mm 1 mps 561 mmHg 44%
    23:00 +14°C° 0 mm 2 mps 561 mmHg 46%

    23 February, Saturday

    Time Temperature Precipitation Wind Pressure Humidity
    00:00 +13°C° 0 mm 1 mps 561 mmHg 50%
    01:00 +12°C° 0 mm 1 mps 560 mmHg 53%
    02:00 +11°C° 0 mm 1 mps 560 mmHg 57%
    03:00 +11°C° 0 mm 1 mps 560 mmHg 61%
    04:00 +11°C° 0 mm 1 mps 560 mmHg 64%
    05:00 +9°C° 0 mm 0 mps 560 mmHg 67%
    06:00 +11°C° 0 mm 0 mps 561 mmHg 63%
    07:00 +12°C° 0 mm 0 mps 562 mmHg 58%
    08:00 +13°C° 0 mm 0 mps 563 mmHg 53%
    09:00 +15°C° 0 mm 0 mps 564 mmHg 46%
    10:00 +20°C° 0 mm 1 mps 565 mmHg 40%
    11:00 +22°C° 0 mm 1 mps 566 mmHg 34%
    12:00 +22°C° 0 mm 1 mps 565 mmHg 31%
    13:00 +23°C° 0 mm 2 mps 565 mmHg 29%
    14:00 +22°C° 0 mm 3 mps 565 mmHg 27%
    15:00 +21°C° 0 mm 3 mps 564 mmHg 32%
    16:00 +19°C° 0 mm 2 mps 564 mmHg 37%
    17:00 +18°C° 0 mm 2 mps 563 mmHg 42%
    18:00 +17°C° 0 mm 2 mps 563 mmHg 45%
    19:00 +16°C° 0 mm 2 mps 564 mmHg 49%
    20:00 +15°C° 0 mm 2 mps 564 mmHg 53%
    21:00 +15°C° 0 mm 2 mps 564 mmHg 57%
    22:00 +14°C° 0 mm 2 mps 563 mmHg 62%
    23:00 +13°C° 0 mm 2 mps 563 mmHg 66%

    24 February, Sunday

    Time Temperature Precipitation Wind Pressure Humidity
    00:00 +12°C° 0 mm 2 mps 562 mmHg 69%
    01:00 +12°C° 0 mm 2 mps 562 mmHg 72%
    02:00 +11°C° 0 mm 1 mps 561 mmHg 75%
    03:00 +10°C° 0 mm 2 mps 561 mmHg 78%
    04:00 +10°C° 0 mm 2 mps 561 mmHg 80%
    05:00 +9°C° 0 mm 2 mps 561 mmHg 83%
    06:00 +10°C° 0 mm 2 mps 562 mmHg 78%
    07:00 +12°C° 0 mm 2 mps 563 mmHg 74%
    08:00 +13°C° 0 mm 2 mps 564 mmHg 69%
    09:00 +16°C° 0 mm 2 mps 565 mmHg 60%
    10:00 +18°C° 0 mm 2 mps 566 mmHg 50%
    11:00 +20°C° 0 mm 2 mps 566 mmHg 41%
    12:00 +20°C° 0 mm 3 mps 566 mmHg 39%
    13:00 +21°C° 0 mm 3 mps 566 mmHg 37%
    14:00 +21°C° 0 mm 3 mps 565 mmHg 35%
    15:00 +20°C° 0.1 mm 3 mps 565 mmHg 40%
    16:00 +19°C° 0.1 mm 3 mps 564 mmHg 45%
    17:00 +18°C° 0.1 mm 3 mps 564 mmHg 51%
    18:00 +17°C° 0.1 mm 2 mps 563 mmHg 58%
    19:00 +16°C° 0.1 mm 2 mps 563 mmHg 66%
    20:00 +14°C° 0.1 mm 2 mps 563 mmHg 73%
    21:00 +14°C° 0.1 mm 1 mps 563 mmHg 77%
    22:00 +13°C° 0.1 mm 1 mps 562 mmHg 80%
    23:00 +13°C° 0.1 mm 1 mps 562 mmHg 84%

    25 February, Monday

    Time Temperature Precipitation Wind Pressure Humidity
    00:00 +12°C° 0 mm 1 mps 562 mmHg 85%
    01:00 +11°C° 0 mm 0 mps 561 mmHg 86%
    02:00 +10°C° 0 mm 0 mps 561 mmHg 87%
    03:00 +10°C° 0 mm 0 mps 561 mmHg 87%
    04:00 +10°C° 0 mm 0 mps 561 mmHg 86%
    05:00 +9°C° 0 mm 0 mps 561 mmHg 86%
    06:00 +11°C° 0 mm 0 mps 562 mmHg 79%
    07:00 +13°C° 0 mm 1 mps 563 mmHg 71%
    08:00 +15°C° 0 mm 1 mps 564 mmHg 63%
    09:00 +17°C° 0 mm 2 mps 564 mmHg 55%
    10:00 +19°C° 0 mm 2 mps 565 mmHg 46%
    11:00 +21°C° 0 mm 2 mps 566 mmHg 38%
    12:00 +21°C° 0 mm 3 mps 565 mmHg 36%
    13:00 +22°C° 0 mm 3 mps 565 mmHg 34%
    14:00 +23°C° 0 mm 4 mps 565 mmHg 32%
    15:00 +22°C° 0.3 mm 4 mps 564 mmHg 36%
    16:00 +20°C° 0.3 mm 3 mps 564 mmHg 41%
    17:00 +19°C° 0.3 mm 3 mps 563 mmHg 45%
    18:00 +18°C° 0.7 mm 2 mps 563 mmHg 50%
    19:00 +17°C° 0.7 mm 2 mps 563 mmHg 54%
    20:00 +16°C° 0.7 mm 1 mps 563 mmHg 59%
    21:00 +15°C° 0.1 mm 1 mps 563 mmHg 60%
    22:00 +15°C° 0.1 mm 1 mps 562 mmHg 61%
    23:00 +13°C° 0.1 mm 0 mps 562 mmHg 62%
    Show more